Temp
18 18 17 17 17 17 17 17 17 17 17 17 17 17 16 16 15 15 15 15 15 15 15 15 15 16 16 16 16 17 17 16 17 18 18 18 18 18 19 19 19 19 19
19 19 18 18 17 17 17 17 17 17 17 16 15 14 14 14 14 14 14 15 15 15 15 15 15 15 15 16 16 16 16 16 16 16 17 18 18 18 18 18 19 19 19
19 19 18 17 17 17 16 16 16 16 16 14 14 13 13 13 13 13 14 14 15 15 15 15 15 15 16 16 15 15 16 16 16 16 16 17 18 18 17 18 18 18 18
19 19 18 17 17 17 16 16 16 15 14 13 12 12 12 12 13 14 14 15 15 15 15 14 14 14 14 15 14 14 15 16 16 16 16 17 17 17 17 17 18 18 18
19 19 18 18 17 17 16 16 15 14 13 13 12 11 11 12 12 14 14 14 15 15 15 14 14 14 14 13 14 14 14 15 15 15 15 16 16 17 17 17 17 17 18
19 18 18 17 17 16 16 15 14 13 13 13 12 12 10 11 11 12 13 13 13 14 14 14 14 14 14 14 14 14 14 14 15 15 15 16 16 16 16 17 16 16 16
18 18 17 16 16 16 15 15 14 12 10 10 11 11 11 11 12 12 12 12 13 13 13 13 13 13 14 14 14 14 14 14 14 14 15 15 15 15 15 15 15 15 15
17 17 16 15 15 14 14 13 12 11 11 10 11 12 11 11 12 12 12 12 12 12 12 12 13 13 13 14 14 14 14 15 15 15 14 14 14 15 15 15 15 15 16
17 17 16 15 15 14 13 13 12 12 12 11 11 11 11 11 11 12 11 12 12 12 12 12 12 12 12 13 13 14 14 14 14 14 14 14 14 14 15 15 15 15 15
17 16 15 15 15 14 13 13 13 12 12 12 12 11 11 11 11 11 11 11 11 12 12 11 12 12 11 12 12 13 13 13 14 14 14 13 14 14 14 15 15 15 15
17 15 15 15 14 14 13 12 12 12 11 11 12 12 11 11 11 10 11 11 11 12 11 11 11 10 11 11 11 11 12 12 12 12 13 13 13 13 14 14 13 13 14
16 15 15 14 13 13 12 12 11 11 12 12 11 11 11 11 11 11 11 11 11 11 10 10 9 10 10 11 11 11 11 11 11 12 12 12 12 12 12 12 12 12 12
15 14 14 14 13 12 12 11 11 11 11 11 12 12 11 11 11 11 11 11 11 10 9 8 9 10 10 11 11 10 10 11 11 11 11 10 10 10 10 11 11 11 11
14 14 13 13 12 12 12 12 12 12 12 12 12 12 12 11 11 11 11 11 11 10 9 9 9 9 9 9 9 10 10 10 10 10 9 9 9 10 10 10 10 10 11
14 13 12 12 12 12 12 12 12 12 12 12 12 12 11 11 11 11 11 11 10 10 9 9 9 9 9 9 9 9 8 9 9 8 9 9 9 9 9 9 9 9 9
13 13 12 12 12 13 13 13 12 12 12 12 12 12 12 11 11 11 11 10 10 9 9 9 9 8 8 8 8 8 8 8 8 8 8 8 8 8 8 8 8 8 9
13 13 12 12 12 12 13 13 13 12 12 12 12 12 12 11 11 11 11 10 9 10 9 9 9 9 8 8 8 8 8 8 7 7 7 7 7 8 8 8 8 8 8
13 13 13 12 12 12 12 12 12 12 12 12 12 12 12 12 12 11 11 11 11 10 9 9 9 9 8 8 8 8 8 7 7 7 7 7 7 7 7 7 7 7 7
13 13 12 12 12 12 12 12 12 12 13 12 12 13 13 12 12 12 12 11 11 10 10 9 9 9 8 8 8 8 7 7 7 7 7 7 7 7 7 7 6 7 6
13 13 13 12 12 12 12 12 12 12 12 13 13 13 13 13 12 12 12 11 11 10 10 9 9 9 8 8 8 8 7 8 7 7 7 7 8 7 7 7 7 7 6
14 13 13 13 13 12 13 13 13 12 13 13 13 13 13 13 13 13 12 12 12 11 10 10 10 9 9 8 8 8 8 8 8 8 8 8 8 7 7 7 7 6 6
14 14 14 13 13 13 13 13 13 13 13 13 13 13 13 13 13 13 13 12 12 11 11 10 10 10 9 9 9 9 9 9 9 9 9 8 8 8 7 7 7 6 6
14 14 14 13 13 13 13 13 13 13 13 13 13 13 13 13 13 13 13 13 12 12 11 11 10 10 10 9 9 9 9 9 9 9 9 8 8 8 7 7 6 6 5
14 14 14 14 13 13 13 13 13 13 13 13 13 13 13 13 13 13 13 13 13 12 12 11 11 11 10 10 10 10 9 10 9 9 9 8 8 8 7 7 7 6 5
13 14 14 13 13 13 13 13 13 13 13 13 13 13 13 13 13 13 13 13 13 13 12 12 11 11 11 10 10 10 10 10 9 9 9 9 8 8 8 7 6 6 5
13 13 13 13 13 13 13 12 12 12 12 12 12 12 12 12 12 12 12 12 13 13 12 12 12 11 11 11 10 10 10 10 10 9 9 8 8 8 8 7 6 5 5
Height
1542 1543 1542 1542 1541 1541 1540 1540 1539 1538 1536 1533 1531 1530 1529 1528 1527 1527 1525 1523 1523 1523 1523 1522 1522 1522 1521 1520 1518 1517 1517 1517 1516 1514 1513 1513 1512 1512 1512 1511 1510 1510 1510
1541 1541 1541 1540 1539 1538 1537 1537 1536 1534 1533 1531 1530 1529 1528 1527 1525 1522 1521 1521 1520 1519 1519 1518 1517 1516 1516 1515 1513 1513 1513 1513 1512 1510 1509 1508 1507 1507 1505 1504 1505 1505 1505
1540 1539 1538 1538 1537 1535 1535 1534 1532 1531 1530 1529 1528 1527 1526 1525 1522 1520 1519 1518 1517 1515 1514 1513 1512 1510 1509 1509 1509 1509 1509 1510 1509 1507 1505 1505 1502 1501 1500 1499 1499 1499 1498
1539 1539 1537 1535 1534 1533 1532 1531 1530 1528 1528 1527 1527 1526 1525 1523 1521 1519 1518 1517 1515 1513 1510 1509 1508 1506 1504 1503 1504 1504 1505 1505 1505 1505 1503 1502 1500 1499 1497 1495 1495 1495 1494
1539 1538 1536 1534 1532 1530 1529 1528 1527 1526 1526 1526 1526 1525 1524 1522 1519 1518 1517 1515 1512 1510 1508 1507 1505 1503 1501 1501 1501 1501 1501 1501 1501 1501 1500 1498 1495 1494 1493 1492 1491 1490 1490
1538 1537 1534 1532 1530 1529 1527 1526 1525 1525 1524 1524 1524 1523 1522 1521 1518 1517 1516 1514 1512 1509 1507 1505 1504 1502 1501 1500 1500 1499 1499 1497 1497 1496 1495 1493 1491 1489 1488 1487 1487 1486 1485
1535 1534 1532 1531 1529 1528 1526 1524 1523 1522 1522 1522 1522 1522 1521 1520 1518 1517 1515 1513 1511 1509 1506 1504 1503 1501 1499 1498 1496 1495 1494 1493 1491 1490 1489 1489 1487 1486 1485 1483 1481 1480 1480
1531 1531 1530 1529 1528 1526 1525 1523 1522 1520 1520 1520 1520 1520 1519 1518 1517 1515 1513 1512 1510 1508 1505 1502 1501 1498 1496 1494 1492 1491 1489 1488 1487 1486 1484 1483 1481 1481 1480 1479 1478 1477 1476
1529 1528 1527 1527 1526 1525 1523 1521 1520 1518 1517 1517 1518 1517 1517 1516 1514 1513 1511 1510 1508 1505 1503 1501 1499 1496 1495 1493 1490 1488 1487 1486 1485 1483 1482 1480 1479 1477 1476 1476 1475 1474 1473
1525 1525 1524 1524 1523 1522 1521 1520 1519 1517 1516 1517 1516 1516 1514 1514 1513 1511 1509 1507 1505 1503 1501 1499 1497 1495 1493 1491 1489 1487 1486 1484 1483 1482 1481 1479 1477 1475 1473 1472 1472 1472 1471
1524 1523 1521 1521 1521 1521 1520 1518 1517 1516 1516 1515 1514 1513 1513 1512 1511 1510 1507 1504 1501 1499 1498 1496 1494 1493 1491 1490 1488 1487 1485 1483 1482 1480 1479 1478 1476 1474 1472 1471 1471 1470 1469
1521 1522 1520 1519 1519 1518 1518 1517 1516 1516 1515 1514 1513 1511 1511 1509 1508 1507 1504 1501 1499 1497 1496 1494 1493 1492 1491 1490 1488 1487 1485 1482 1481 1479 1477 1476 1474 1473 1472 1471 1470 1469 1468
1519 1519 1518 1518 1518 1518 1518 1517 1516 1514 1513 1512 1511 1509 1508 1507 1506 1504 1501 1499 1497 1496 1494 1493 1493 1492 1490 1488 1486 1484 1483 1481 1479 1477 1476 1474 1473 1472 1471 1470 1469 1468 1466
1517 1517 1518 1516 1516 1516 1517 1516 1515 1513 1512 1511 1510 1508 1507 1505 1503 1501 1499 1498 1496 1495 1494 1493 1491 1490 1488 1487 1485 1484 1482 1480 1478 1477 1475 1474 1473 1471 1469 1467 1466 1465 1463
1514 1516 1517 1516 1515 1514 1515 1514 1513 1511 1510 1509 1508 1507 1506 1504 1502 1499 1498 1496 1495 1494 1493 1492 1490 1489 1488 1486 1485 1483 1482 1480 1478 1476 1475 1473 1472 1470 1468 1466 1464 1463 1461
1513 1514 1514 1513 1512 1512 1512 1511 1510 1509 1507 1507 1506 1505 1504 1503 1501 1498 1496 1495 1494 1494 1493 1491 1490 1488 1487 1485 1484 1483 1481 1479 1478 1476 1474 1473 1471 1469 1467 1465 1463 1460 1458
1510 1511 1510 1510 1510 1509 1509 1508 1507 1506 1505 1504 1503 1502 1502 1501 1499 1497 1495 1494 1493 1493 1491 1490 1489 1487 1486 1484 1483 1481 1479 1478 1476 1475 1473 1472 1470 1468 1466 1463 1460 1457 1454
1508 1508 1507 1506 1506 1505 1505 1505 1504 1503 1501 1501 1500 1500 1499 1499 1498 1496 1494 1493 1492 1490 1489 1488 1487 1485 1484 1482 1481 1479 1477 1476 1474 1473 1472 1470 1469 1467 1464 1461 1458 1455 1452
1505 1504 1503 1502 1502 1502 1502 1502 1501 1500 1499 1498 1497 1497 1496 1496 1494 1493 1492 1490 1489 1488 1486 1485 1484 1483 1481 1479 1478 1476 1475 1473 1472 1471 1469 1468 1467 1465 1462 1459 1455 1452 1449
1502 1500 1499 1498 1498 1499 1498 1498 1496 1495 1495 1494 1492 1492 1492 1491 1490 1489 1487 1486 1485 1484 1483 1482 1481 1480 1477 1475 1475 1473 1472 1471 1470 1468 1466 1465 1463 1461 1458 1455 1452 1447 1444
1498 1497 1495 1495 1494 1494 1494 1493 1492 1491 1490 1489 1488 1488 1487 1486 1485 1484 1483 1482 1480 1479 1479 1478 1477 1476 1474 1472 1471 1470 1469 1467 1467 1465 1463 1461 1459 1456 1454 1451 1447 1442 1438
1493 1492 1491 1490 1489 1489 1488 1488 1487 1487 1486 1485 1484 1483 1482 1481 1479 1478 1477 1476 1475 1474 1474 1473 1473 1472 1470 1469 1467 1467 1465 1464 1463 1462 1459 1457 1454 1451 1449 1445 1441 1436 1432
1487 1486 1485 1484 1484 1483 1482 1482 1481 1480 1480 1479 1478 1477 1476 1474 1473 1472 1471 1470 1469 1469 1468 1468 1468 1467 1466 1465 1464 1462 1462 1461 1459 1457 1455 1452 1449 1447 1443 1438 1434 1429 1424
1481 1479 1478 1477 1476 1475 1475 1474 1473 1473 1472 1471 1471 1470 1469 1467 1465 1464 1464 1463 1463 1463 1462 1462 1461 1461 1461 1460 1459 1458 1457 1456 1455 1453 1450 1447 1444 1442 1437 1432 1427 1422 1417
1475 1473 1472 1470 1469 1468 1467 1466 1465 1464 1464 1463 1462 1461 1459 1459 1457 1457 1456 1455 1454 1454 1454 1454 1454 1455 1455 1454 1454 1453 1452 1451 1449 1448 1445 1443 1439 1435 1431 1425 1420 1414 1410
1469 1466 1465 1464 1463 1461 1460 1458 1457 1456 1454 1454 1453 1451 1451 1450 1448 1447 1447 1446 1445 1445 1446 1447 1447 1447 1448 1448 1447 1447 1446 1445 1443 1442 1439 1437 1433 1429 1424 1418 1413 1408 1404
Wind_Speed
10 9 7 8 9 8 6 6 6 6 6 6 5 5 5 5 7 9 10 12 14 14 16 17 17 17 15 12 12 10 10 14 16 23 23 22 21 22 21 18 17 16 20
9 8 7 5 6 6 6 6 6 5 4 3 3 2 3 6 7 7 7 8 9 10 11 14 15 15 15 14 14 12 10 10 13 16 18 20 21 18 19 21 20 22 23
6 2 3 4 6 7 7 7 6 5 3 3 2 4 6 7 7 8 9 11 12 13 14 15 15 16 16 16 15 16 15 11 12 14 15 16 18 19 18 19 18 18 21
4 2 3 4 6 6 5 6 6 5 4 4 0 2 4 8 9 9 10 10 9 10 9 9 9 9 11 10 9 11 14 15 14 15 15 16 16 15 16 17 18 18 19
4 3 5 6 5 5 6 6 4 5 6 5 5 6 8 11 10 6 6 7 7 6 6 8 8 8 7 6 10 12 13 13 11 13 16 17 18 18 18 18 19 19 20
5 5 6 6 6 7 7 5 3 3 3 2 4 4 6 7 11 11 10 8 7 9 8 7 7 9 9 9 12 13 13 15 16 16 16 16 16 17 18 19 19 19 20
6 6 6 6 7 7 6 4 2 2 2 2 3 3 3 7 7 9 10 11 11 10 9 10 10 11 12 13 12 12 12 13 15 14 14 15 15 14 14 13 13 14 14
7 6 6 7 7 5 4 2 2 3 2 3 3 1 5 6 7 9 12 11 11 10 9 11 11 13 14 15 14 14 12 12 10 10 12 14 15 15 11 10 12 13 12
9 7 6 8 8 6 4 2 2 5 3 4 1 3 4 6 7 11 13 15 14 10 9 11 13 15 12 12 12 12 11 9 9 10 11 12 13 14 12 13 13 11 9
9 7 8 9 8 6 4 3 2 4 5 5 2 1 4 5 8 11 14 18 18 11 7 10 13 13 12 10 9 11 11 11 11 8 6 5 7 8 9 8 9 9 8
8 8 9 7 6 6 5 3 1 5 6 0 3 5 6 6 7 11 16 19 19 15 12 11 9 6 7 8 10 10 11 12 11 12 12 11 11 10 10 8 5 5 4
8 11 9 5 4 3 3 2 4 4 2 4 7 7 8 9 12 15 17 18 17 13 11 10 8 6 6 7 9 12 11 10 10 10 11 11 8 6 4 6 6 5 7
9 11 10 7 2 2 0 4 2 2 4 7 8 9 11 13 14 14 14 14 12 10 9 7 6 8 7 6 8 7 8 8 8 8 9 8 7 8 8 6 7 4 3
11 11 9 6 3 3 2 3 2 3 4 6 8 8 9 10 11 10 10 9 7 5 4 5 5 9 5 5 5 6 7 9 10 8 7 6 6 7 7 7 8 6 7
11 8 5 5 5 5 5 6 6 4 6 7 7 8 10 12 11 8 7 5 5 4 3 7 10 8 5 4 5 7 8 8 8 8 8 8 10 11 11 10 10 11 11
8 9 9 8 6 7 8 7 8 5 6 7 7 8 8 10 12 10 6 3 5 4 4 6 7 7 7 9 11 11 10 9 9 8 8 10 13 13 14 15 15 15 15
10 10 13 11 9 10 9 8 8 8 9 9 10 9 7 9 9 12 10 5 6 6 4 5 7 10 12 12 13 13 11 7 7 8 10 12 13 14 17 21 20 19 19
9 9 11 15 12 12 13 11 12 13 15 14 9 8 9 9 7 8 10 9 8 9 9 7 9 11 15 14 13 10 8 5 4 7 10 12 13 16 20 24 28 25 23
10 10 10 10 11 9 11 13 12 13 11 8 10 11 11 11 12 12 12 13 11 8 8 10 12 15 16 16 13 6 9 7 6 7 8 12 15 19 23 25 28 27 26
12 11 10 9 10 11 14 16 17 19 17 15 17 15 12 14 14 14 15 14 14 11 10 11 12 16 14 10 8 6 7 9 10 7 9 12 15 19 23 27 30 31 30
14 14 13 12 14 12 14 15 13 13 15 16 14 15 16 18 19 17 16 14 9 10 11 11 11 13 12 9 8 8 9 11 13 11 11 14 18 22 25 29 32 33 33
17 16 15 16 15 16 14 15 17 17 19 20 19 20 19 21 19 20 20 17 13 11 12 14 13 13 11 9 7 9 11 10 12 15 18 21 23 25 28 32 34 35 34
23 24 22 21 19 20 20 19 21 22 23 24 22 23 24 26 25 23 22 18 17 18 18 18 16 14 13 10 11 12 15 16 15 18 22 23 25 26 30 34 36 36 35
25 24 23 20 24 23 24 26 27 26 23 25 26 27 25 23 21 20 20 22 21 21 23 22 18 16 14 12 12 15 16 17 17 20 23 25 25 28 32 34 36 35 33
17 18 19 22 24 25 26 25 27 28 28 29 29 28 28 25 24 28 26 26 24 24 24 21 20 18 16 15 16 16 16 16 18 21 23 24 27 29 32 34 35 32 27
15 16 21 24 26 25 25 28 31 33 33 36 35 34 35 36 36 34 32 30 25 24 25 23 21 19 19 20 20 18 18 20 20 21 24 25 27 29 31 33 30 26 26
Wind_Direction
186 194 207 237 246 247 256 276 280 285 284 286 290 299 309 303 286 278 283 280 279 277 272 273 274 275 277 285 291 293 294 289 289 284 288 292 288 287 287 280 274 269 256
193 204 213 229 246 263 288 300 302 296 290 295 324 346 319 319 321 322 321 312 303 295 287 281 280 278 279 274 278 288 298 302 301 298 294 294 289 286 289 277 273 271 273
175 198 271 274 265 278 295 305 308 300 290 296 313 348 335 332 317 315 315 315 313 310 308 304 298 289 286 282 280 280 287 302 303 305 303 298 294 295 286 282 283 278 277
195 244 291 281 280 287 295 304 303 282 263 274 342 287 289 311 303 313 315 320 324 323 323 330 334 335 327 306 295 303 298 298 299 298 300 297 292 291 293 294 286 282 280
223 271 303 312 311 311 323 324 298 261 249 257 245 259 290 302 320 6 353 341 338 338 331 333 344 340 329 339 323 309 308 308 312 309 302 301 296 287 286 289 288 289 288
237 273 303 317 317 319 329 333 302 253 285 113 35 6 355 5 18 25 12 6 347 334 334 337 343 340 329 316 309 299 299 304 299 294 301 312 306 297 293 287 291 293 291
244 271 303 310 311 314 324 322 298 338 27 21 9 348 357 345 18 18 11 7 348 332 316 320 319 319 319 317 312 309 302 303 301 288 289 299 305 312 302 295 292 293 290
247 275 297 304 304 303 307 337 1 335 271 183 179 213 313 335 352 354 354 354 347 334 316 302 308 311 313 320 319 323 327 317 306 294 291 299 297 296 278 289 295 299 297
250 269 299 305 296 292 291 301 309 3 1 199 220 283 305 327 333 347 348 348 345 329 309 295 297 308 317 325 329 327 334 328 315 310 310 306 312 305 288 276 274 281 298
254 283 303 299 290 276 264 289 351 7 96 114 140 256 279 308 314 328 332 337 340 339 321 303 303 301 313 319 329 332 333 347 342 333 324 316 306 320 351 326 295 285 292
263 287 297 293 283 276 280 282 342 112 130 108 306 259 276 288 306 313 323 332 336 342 338 326 342 359 357 350 338 343 341 335 324 322 320 322 319 317 321 327 316 333 308
270 287 284 281 310 331 311 164 154 151 88 353 324 307 305 311 313 315 323 328 332 338 335 338 3 351 345 335 336 336 333 331 323 311 315 329 342 350 1 354 349 337 302
276 284 279 274 256 157 204 196 203 244 7 359 349 332 310 311 312 318 322 328 327 332 340 2 342 337 325 330 326 344 352 350 341 342 0 10 5 350 325 296 292 296 282
288 283 267 262 218 187 164 203 296 349 344 334 347 3 352 338 327 321 319 321 328 327 336 335 323 322 344 3 339 342 348 358 7 7 17 20 5 350 343 340 333 317 290
282 259 228 214 223 244 247 248 269 316 331 322 326 345 358 357 346 332 329 335 5 18 40 34 32 38 35 30 7 357 349 353 0 359 350 352 352 352 355 350 340 336 334
281 251 229 259 240 248 262 262 253 277 307 303 305 317 332 349 357 356 340 328 343 6 1 7 20 14 353 354 349 343 344 348 6 6 343 346 357 0 359 355 345 339 336
294 276 248 245 249 263 269 268 268 285 291 292 304 289 301 330 358 13 1 314 309 312 316 325 333 338 332 326 328 327 329 339 357 5 356 355 359 7 6 2 356 348 343
297 288 272 257 259 260 249 270 268 293 294 285 289 272 305 301 298 327 347 340 305 282 292 293 308 312 312 316 322 328 335 321 327 345 345 346 351 353 353 352 351 346 337
296 295 290 260 236 252 265 278 263 277 285 276 278 288 297 292 276 284 300 317 293 294 293 297 301 311 303 300 301 314 351 329 313 329 336 327 335 342 342 342 340 338 334
297 297 294 260 247 259 274 281 288 273 270 286 278 278 279 286 289 298 286 298 281 272 284 299 305 312 306 292 278 295 328 334 324 308 314 324 332 333 334 334 335 333 332
293 292 290 270 256 266 284 283 283 275 268 278 284 286 285 284 286 289 280 283 296 282 274 289 304 311 308 285 268 289 303 318 324 309 320 332 333 329 329 327 327 329 327
291 289 284 280 280 267 269 278 283 282 279 277 278 292 287 276 285 282 283 274 278 278 277 273 286 309 304 293 282 289 300 315 330 330 331 333 329 322 321 323 324 323 322
286 286 286 283 286 281 272 274 279 281 282 282 287 290 286 283 278 278 282 272 272 269 272 266 276 302 302 286 287 293 295 299 311 320 322 320 317 315 318 320 320 319 320
285 287 286 293 284 282 276 277 279 280 284 283 280 279 280 283 285 275 276 280 273 271 265 260 271 286 294 274 278 284 290 300 304 309 306 307 308 313 316 317 317 318 317
288 293 294 288 287 286 282 282 285 280 277 279 285 281 280 277 283 288 288 279 270 261 263 258 268 276 281 277 278 278 285 290 297 298 297 302 308 314 318 316 317 317 318
291 290 292 295 291 296 296 294 294 292 286 283 286 283 283 280 284 276 278 281 259 251 256 260 268 265 270 272 264 270 273 287 294 296 300 304 310 315 318 316 318 318 320